[[{"header":{"parameterUnit":"m.s-1","parameterCategory":1,"la1":30.2991,"la2":30.254,"lo1":-89.0895,"lo2":-89.0444,"dy":0.0017,"dx":0.0017,"nx":28,"ny":28,"refTime":"2024-03-31T21:00:00:Z","depth":0,"parameterNumber":2,"parameterNumberName":"U-component_of_WINDS"},"data":[0,0,0,0,0,0,0,0,0,0,0,0,0,0,0,0,0,0,0,0,0,0,0,0,0,0,0,0,0,0,0,0,0,0,0,0,0,0,0,0,0,0,0,0,0,0,0,0,0,0,0,0,0,0,0,0,0,0,-0.9057,-0.9057,0,-0.9068,-0.9068,-0.9068,-0.907,-0.907,-0.907,-0.907,-0.908,-0.908,-0.908,0,0,0,0,0,0,0,0,0,0,0,0,0,-0.9037,-0.9037,-0.9057,-0.9057,-0.9057,-0.9068,-0.9068,-0.9068,-0.907,-0.907,-0.907,-0.907,-0.908,-0.908,-0.908,0,0,0,0,0,0,0,0,0,0,0,0,0,-0.9046,-0.9037,-0.9057,-0.906,-0.906,-0.9068,-0.9068,-0.9068,-0.907,-0.907,-0.907,-0.907,-0.9079,-0.908,-0.908,-0.9086,0,0,-0.9082,-0.9082,0,0,0,0,0,0,0,0,-0.9046,-0.9047,-0.9059,-0.9059,-0.906,-0.9067,-0.9064,-0.9074,-0.907,-0.9066,-0.907,-0.907,-0.9076,-0.9076,-0.9079,-0.9086,-0.9087,-0.9082,-0.9082,-0.9083,-0.9083,0,0,0,0,0,0,0,-0.9045,-0.9047,-0.9061,-0.9059,-0.906,-0.906,-0.9061,-0.9066,-0.9071,-0.9067,-0.9067,-0.9068,-0.9076,-0.9078,-0.9079,-0.9087,-0.9082,-0.9082,-0.9083,-0.9083,-0.9098,-0.9098,0,0,0,0,0,0,-0.9044,-0.9046,-0.9061,-0.9061,-0.9052,-0.906,-0.9062,-0.9065,-0.9071,-0.9072,-0.9068,-0.9068,-0.9077,-0.9078,-0.9079,-0.9085,-0.9083,-0.9083,-0.9083,-0.9098,-0.9098,-0.9098,0,0,0,0,0,0,-0.9044,-0.9045,-0.906,-0.9054,-0.9056,-0.9061,-0.9065,-0.9065,-0.9068,-0.9073,-0.9073,-0.907,-0.9077,-0.9079,-0.9084,-0.9086,-0.9083,-0.9084,-0.9098,-0.9098,-0.9098,-0.9098,0,0,0,0,0,0,-0.9043,-0.9045,-0.9048,-0.9054,-0.9056,-0.9065,-0.9065,-0.9066,-0.9069,-0.9069,-0.9074,-0.9075,-0.9077,-0.9083,-0.9084,-0.9086,-0.9084,-0.9098,-0.9098,-0.9098,-0.9098,-0.9098,-0.9098,0,0,0,0,0,-0.9042,-0.9047,-0.9048,-0.905,-0.9059,-0.9066,-0.9067,-0.907,-0.9069,-0.9071,-0.9074,-0.9075,-0.9085,-0.9084,-0.9085,-0.9087,-0.9098,-0.9098,-0.9098,-0.9098,-0.9098,-0.9098,0,0,0,0,0,0,-0.9041,-0.9048,-0.9049,-0.9056,-0.906,-0.9066,-0.9069,-0.907,-0.9074,-0.9074,-0.9077,-0.9078,-0.9083,-0.9086,-0.9084,-0.9092,-0.9091,-0.9092,-0.909,-0.9091,-0.9091,-0.909,-0.9084,0,0,0,0,0,-0.9042,-0.9047,-0.9052,-0.9058,-0.906,-0.9064,-0.9067,-0.9069,-0.9073,-0.9075,-0.9078,-0.9082,-0.9086,-0.9088,-0.9093,-0.9098,-0.9099,-0.91,-0.91,-0.9101,-0.9101,-0.9103,-0.9104,-0.9099,-0.9099,-0.9099,0,0,-0.9043,-0.9048,-0.9051,-0.9058,-0.9061,-0.9066,-0.9066,-0.9071,-0.9074,-0.9075,-0.9081,-0.9083,-0.9087,-0.9093,-0.9095,-0.9095,-0.9102,-0.9101,-0.9101,-0.9101,-0.9103,-0.9104,-0.9104,-0.9099,-0.9099,-0.9099,0,0,-0.9048,-0.9052,-0.9057,-0.906,-0.9065,-0.9068,-0.9069,-0.9074,-0.9076,-0.9081,-0.9082,-0.9086,-0.9093,-0.9096,-0.9098,-0.9102,-0.9103,-0.9104,-0.9105,-0.9107,-0.9107,-0.9108,-0.9109,-0.9109,-0.9104,-0.9104,-0.9104,0,-0.9049,-0.9056,-0.9059,-0.9064,-0.9066,-0.9068,-0.9073,-0.9075,-0.9082,-0.9083,-0.9083,-0.9091,-0.9094,-0.91,-0.9101,-0.9103,-0.9104,-0.9103,-0.9107,-0.9108,-0.9108,-0.9109,-0.9109,-0.9104,-0.9104,-0.9104,-0.9104,0,-0.9056,-0.9061,-0.9064,-0.907,-0.9073,-0.9078,-0.9081,-0.9083,-0.9085,-0.9087,-0.9092,-0.9096,-0.91,-0.9101,-0.9103,-0.9107,-0.9107,-0.9107,-0.9106,-0.9108,-0.9109,-0.911,-0.9104,-0.9104,-0.9104,-0.9104,0,0,-0.9061,-0.9068,-0.9069,-0.9071,-0.9077,-0.908,-0.9084,-0.9089,-0.9091,-0.9094,-0.9097,-0.9103,-0.9103,-0.9106,-0.9107,-0.9109,-0.9112,-0.9109,-0.9109,-0.9109,-0.9116,-0.9115,-0.9116,-0.9112,-0.9112,-0.9112,-0.9115,0,-0.9066,-0.9073,-0.9076,-0.9082,-0.9086,-0.9087,-0.9091,-0.9094,-0.9096,-0.9099,-0.9101,-0.9105,-0.9105,-0.9107,-0.9109,-0.9111,-0.9113,-0.9111,-0.9114,-0.9114,-0.9113,-0.9116,-0.9116,-0.9119,-0.9116,-0.9116,-0.9116,0,-0.9072,-0.9076,-0.9083,-0.9087,-0.9089,-0.9092,-0.9096,-0.9099,-0.9102,-0.9104,-0.9106,-0.9107,-0.9111,-0.911,-0.9115,-0.9113,-0.9115,-0.9116,-0.9116,-0.9116,-0.9115,-0.9117,-0.912,-0.912,-0.9116,-0.9116,-0.9116,0,-0.9074,-0.9081,-0.9086,-0.9088,-0.9093,-0.9095,-0.9097,-0.91,-0.9103,-0.9106,-0.9107,-0.9111,-0.9113,-0.9115,-0.9117,-0.9116,-0.9121,-0.912,-0.9122,-0.9122,-0.9123,-0.9123,-0.9126,-0.9124,-0.9124,-0.9124,-0.9124,0,-0.9079,-0.9083,-0.9087,-0.909,-0.9094,-0.9096,-0.91,-0.9102,-0.9105,-0.9108,-0.9109,-0.9111,-0.9114,-0.9117,-0.9118,-0.9121,-0.9122,-0.9123,-0.9123,-0.9123,-0.9123,-0.9124,-0.9123,-0.9124,-0.9124,-0.9124,-0.9124,0,-0.9082,-0.9085,-0.909,-0.9094,-0.9095,-0.9098,-0.9101,-0.9104,-0.9106,-0.9109,-0.911,-0.9113,-0.9116,-0.9118,-0.9122,-0.9123,-0.9126,-0.9127,-0.9125,-0.9125,-0.9127,-0.9126,-0.9131,-0.9131,-0.9129,-0.9129,-0.9129,0,-0.9085,-0.9088,-0.9092,-0.9094,-0.9097,-0.91,-0.9102,-0.9104,-0.9106,-0.911,-0.9112,-0.9115,-0.9118,-0.9123,-0.9125,-0.9128,-0.9128,-0.9129,-0.9128,-0.9128,-0.9128,-0.9127,-0.9127,-0.913,-0.913,-0.913,-0.913,0,-0.909,-0.9091,-0.9094,-0.9097,-0.91,-0.9103,-0.9106,-0.9107,-0.911,-0.9112,-0.9115,-0.9117,-0.9121,-0.9124,-0.9127,-0.9129,-0.9129,-0.913,-0.913,-0.913,-0.9129,-0.9129,-0.9125,-0.913,-0.913,-0.913,-0.913,-0.913,-0.9092,-0.9095,-0.9098,-0.9101,-0.9104,-0.9106,-0.9108,-0.911,-0.9113,-0.9117,-0.9118,-0.9121,-0.9123,-0.9128,-0.9129,-0.9131,-0.9131,-0.9132,-0.9132,-0.9132,-0.9132,-0.9128,-0.9132,-0.9132,-0.9132,-0.9132,-0.9132,0,-0.9096,-0.9098,-0.9102,-0.9105,-0.9108,-0.9108,-0.9111,-0.9113,-0.9116,-0.9118,-0.9121,-0.9124,-0.9127,-0.9129,-0.9132,-0.9133,-0.9134,-0.9134,-0.9134,-0.9134,-0.9132,-0.9131,-0.9134,-0.9134,-0.9134,-0.9134,-0.9134,-0.9134,-0.9099,-0.9103,-0.9104,-0.9109,-0.9111,-0.9114,-0.9115,-0.9117,-0.9119,-0.9123,-0.9125,-0.9127,-0.9129,-0.9132,-0.9134,-0.9135,-0.9135,-0.9136,-0.9136,-0.9134,-0.9134,-0.9134,-0.9133,-0.9136,-0.9136,-0.9138,-0.9138,-0.9138]},{"header":{"parameterUnit":"m.s-1","parameterCategory":1,"la1":30.2991,"la2":30.254,"lo1":-89.0895,"lo2":-89.0444,"dy":0.0017,"dx":0.0017,"nx":28,"ny":28,"refTime":"2024-03-31T21:00:00:Z","depth":0,"parameterNumber":3,"parameterNumberName":"V-component_of_WINDS"},"data":[0,0,0,0,0,0,0,0,0,0,0,0,0,0,0,0,0,0,0,0,0,0,0,0,0,0,0,0,0,0,0,0,0,0,0,0,0,0,0,0,0,0,0,0,0,0,0,0,0,0,0,0,0,0,0,0,0,0,2.4023,2.4025,0,2.4218,2.4221,2.4223,2.43,2.4299,2.4299,2.4298,2.4496,2.4502,2.4508,0,0,0,0,0,0,0,0,0,0,0,0,0,2.3715,2.372,2.4022,2.4025,2.4027,2.4218,2.4221,2.4223,2.43,2.4299,2.4299,2.4298,2.4494,2.4501,2.4508,0,0,0,0,0,0,0,0,0,0,0,0,0,2.3873,2.3722,2.4022,2.4089,2.4097,2.4217,2.4221,2.4224,2.43,2.4299,2.4298,2.4298,2.4492,2.4501,2.4509,2.4577,0,0,2.4535,2.4539,0,0,0,0,0,0,0,0,2.3864,2.3884,2.4076,2.4084,2.4093,2.4234,2.4185,2.4342,2.43,2.4223,2.4298,2.4297,2.4409,2.4425,2.4463,2.4587,2.4595,2.4536,2.4541,2.4545,2.4547,0,0,0,0,0,0,0,2.3853,2.3876,2.41,2.4079,2.4089,2.4109,2.413,2.4215,2.4318,2.4229,2.4235,2.4258,2.4414,2.4455,2.4468,2.4598,2.4536,2.4544,2.4549,2.4552,2.4791,2.4792,0,0,0,0,0,0,2.3831,2.3867,2.4094,2.4106,2.3975,2.4115,2.4139,2.4189,2.4317,2.4336,2.4258,2.4261,2.444,2.4458,2.4476,2.4567,2.4545,2.4553,2.4558,2.479,2.4791,2.4792,0,0,0,0,0,0,2.3824,2.3851,2.4086,2.3988,2.4019,2.4121,2.4177,2.4194,2.4235,2.4339,2.4357,2.4281,2.444,2.4463,2.4553,2.4574,2.4557,2.4565,2.4788,2.479,2.4792,2.4747,0,0,0,0,0,0,2.3815,2.3848,2.3875,2.3988,2.4024,2.4159,2.4178,2.4198,2.425,2.4255,2.4365,2.4383,2.4442,2.4539,2.4561,2.4586,2.4571,2.4787,2.4789,2.4791,2.4747,2.4747,2.4747,0,0,0,0,0,2.3804,2.3853,2.3876,2.3903,2.406,2.416,2.4181,2.4249,2.4251,2.4279,2.4347,2.4379,2.4568,2.4548,2.4573,2.4601,2.4786,2.4789,2.4791,2.4747,2.4747,2.4747,0,0,0,0,0,0,2.3738,2.3869,2.3895,2.3983,2.406,2.4173,2.4211,2.4246,2.4323,2.4325,2.4404,2.4429,2.4512,2.4565,2.454,2.4675,2.4679,2.4687,2.4638,2.4639,2.4638,2.4624,2.4579,0,0,0,0,0,2.3734,2.3805,2.3915,2.3982,2.4019,2.4108,2.4154,2.42,2.4283,2.4315,2.4389,2.4468,2.4546,2.4595,2.4671,2.4755,2.4782,2.4787,2.4787,2.4786,2.4793,2.4844,2.4848,2.4801,2.4801,2.4801,0,0,2.3725,2.3806,2.3845,2.3971,2.4036,2.4108,2.4135,2.4209,2.4264,2.4326,2.4416,2.4473,2.4566,2.4653,2.4695,2.47,2.4811,2.479,2.4789,2.4795,2.4847,2.4851,2.4855,2.4803,2.4803,2.4802,0,0,2.3748,2.3815,2.3879,2.3945,2.4044,2.4103,2.4118,2.4227,2.4268,2.4359,2.4409,2.4474,2.4605,2.4671,2.4721,2.4771,2.4805,2.4793,2.4794,2.4843,2.4847,2.485,2.487,2.4876,2.4799,2.4799,2.4799,0,2.3725,2.3836,2.3907,2.3981,2.4035,2.4096,2.4163,2.4222,2.4341,2.4377,2.4381,2.4549,2.4616,2.4721,2.4733,2.4771,2.4792,2.4782,2.484,2.4845,2.4849,2.4869,2.4876,2.4797,2.4797,2.4797,2.4798,0,2.3804,2.388,2.392,2.4035,2.4094,2.4163,2.4246,2.4296,2.4337,2.4396,2.4489,2.4572,2.4668,2.4696,2.4735,2.4808,2.4808,2.4825,2.4831,2.4851,2.4871,2.4879,2.4794,2.4795,2.4796,2.4796,0,0,2.379,2.3945,2.3959,2.4013,2.4128,2.4189,2.4261,2.4356,2.44,2.4479,2.4543,2.4654,2.4671,2.4728,2.4776,2.4818,2.4856,2.4831,2.4834,2.4835,2.4943,2.4931,2.4939,2.4879,2.488,2.4882,2.4936,0,2.3829,2.3962,2.403,2.4134,2.4207,2.4268,2.4331,2.4408,2.4466,2.4536,2.4599,2.4677,2.4693,2.4729,2.4773,2.4842,2.4879,2.4838,2.494,2.4942,2.4916,2.4949,2.4936,2.4983,2.4944,2.4946,2.4947,0,2.3892,2.3974,2.4086,2.4195,2.4228,2.4284,2.4379,2.4444,2.4534,2.4573,2.4638,2.4685,2.4765,2.4764,2.4876,2.4847,2.4892,2.4932,2.4936,2.4949,2.4947,2.4965,2.5,2.5008,2.4959,2.4958,2.4957,0,2.3873,2.4011,2.4097,2.4141,2.427,2.4308,2.4364,2.4453,2.4507,2.4589,2.4625,2.4714,2.4764,2.4832,2.4903,2.4896,2.5008,2.5013,2.5044,2.5042,2.5066,2.5064,2.511,2.5092,2.5092,2.5091,2.5091,0,2.3911,2.3977,2.409,2.4143,2.422,2.4298,2.4372,2.4432,2.4511,2.4577,2.4634,2.4695,2.4784,2.4856,2.4911,2.4996,2.5017,2.5052,2.5066,2.5048,2.5044,2.508,2.5079,2.5093,2.5093,2.5093,2.5092,0,2.3902,2.3981,2.4079,2.4194,2.4224,2.4276,2.4375,2.4429,2.449,2.4573,2.4597,2.4693,2.4781,2.4858,2.4973,2.5011,2.5099,2.5115,2.5069,2.5077,2.5105,2.5102,2.5178,2.5193,2.5161,2.5161,2.5162,0,2.3922,2.3975,2.4097,2.4146,2.4201,2.4279,2.4335,2.4414,2.447,2.4578,2.4619,2.4712,2.479,2.4928,2.5008,2.5097,2.5117,2.5138,2.5131,2.5112,2.5121,2.5117,2.5124,2.5138,2.5138,2.5138,2.5138,0,2.3949,2.3986,2.4065,2.4159,2.4225,2.4302,2.4381,2.4417,2.4511,2.4571,2.4663,2.4724,2.4844,2.4936,2.5035,2.5092,2.5131,2.5139,2.5152,2.5135,2.5107,2.5125,2.5071,2.5137,2.5137,2.5137,2.5137,2.5137,2.3957,2.4008,2.4103,2.419,2.4258,2.4331,2.4389,2.4458,2.4536,2.4641,2.4683,2.4777,2.4868,2.5005,2.5062,2.5137,2.5144,2.5161,2.5166,2.5169,2.5167,2.5093,2.5155,2.5155,2.5155,2.5155,2.5155,0,2.3989,2.4054,2.4133,2.4243,2.4312,2.4344,2.4434,2.4489,2.4572,2.4654,2.4731,2.4838,2.4928,2.5015,2.511,2.5153,2.5174,2.5176,2.5174,2.5187,2.5155,2.5136,2.5158,2.5158,2.5158,2.5158,2.5158,2.5158,2.4014,2.4104,2.4152,2.4277,2.4341,2.4435,2.4484,2.4552,2.4618,2.4735,2.4811,2.4868,2.4953,2.5055,2.514,2.5163,2.5196,2.5194,2.5222,2.519,2.5189,2.5188,2.5171,2.52,2.52,2.5249,2.5249,2.525]}]]